VJT186 SBRJ-SBGR

Flight info

Callsign VJT186
Flight time 0h 40m
Altitude 40000
Route ESORU UZ10 EDMUS
Aircraft C700/M-SBDGHM1RWXY/LB2

Departure

Time 2026-05-04 16:53
Airport Santos Dumont Airport (SBRJ)

Arrival

Time 2026-05-04 17:33
Airport São Paulo/Guarulhos–Governor André Franco Montoro International Airport (SBGR)
Time Latitude Longitude Altitude Speed Heading
2026-05-04 16:43 -22.91051 -43.16610 18 ft 0 kts 266°
2026-05-04 16:47 -22.91050 -43.16596 18 ft 2 kts 266°
2026-05-04 16:47 -22.91048 -43.16560 16 ft 2 kts 268°
2026-05-04 16:48 -22.91053 -43.16536 16 ft 0 kts 342°
2026-05-04 16:49 -22.90951 -43.16543 17 ft 18 kts 356°
2026-05-04 16:50 -22.90622 -43.16551 16 ft 27 kts 356°
2026-05-04 16:50 -22.90500 -43.16525 18 ft 0 kts 86°
2026-05-04 16:51 -22.90499 -43.16514 17 ft 5 kts 86°
2026-05-04 16:51 -22.90494 -43.16435 17 ft 15 kts 86°
2026-05-04 16:51 -22.90537 -43.16316 18 ft 0 kts 178°
2026-05-04 16:52 -22.90839 -43.16296 20 ft 95 kts 176°
2026-05-04 16:52 -22.91786 -43.16236 253 ft 168 kts 177°
2026-05-04 16:53 -22.93842 -43.14997 1251 ft 165 kts 116°
2026-05-04 16:53 -22.96090 -43.12243 2845 ft 198 kts 140°
2026-05-04 16:54 -22.97277 -43.11184 3436 ft 240 kts 144°
2026-05-04 16:55 -23.03687 -43.12617 5697 ft 268 kts 235°
2026-05-04 16:55 -23.04441 -43.16508 6773 ft 273 kts 281°
2026-05-04 16:56 -23.02459 -43.19983 7841 ft 278 kts 313°
2026-05-04 16:56 -22.98489 -43.24655 9442 ft 286 kts 312°
2026-05-04 16:57 -22.97139 -43.26254 9972 ft 290 kts 312°
2026-05-04 16:57 -22.94096 -43.29851 11060 ft 346 kts 312°
2026-05-04 16:58 -22.89195 -43.35780 12684 ft 356 kts 311°
2026-05-04 16:58 -22.87535 -43.37789 13224 ft 359 kts 311°
2026-05-04 16:59 -22.84213 -43.41856 14274 ft 365 kts 311°
2026-05-04 17:00 -22.77343 -43.50269 16388 ft 380 kts 311°
2026-05-04 17:00 -22.72648 -43.57166 17950 ft 385 kts 293°
2026-05-04 17:01 -22.71592 -43.62860 18985 ft 391 kts 270°
2026-05-04 17:01 -22.72257 -43.68743 20034 ft 397 kts 262°
2026-05-04 17:02 -22.73060 -43.74714 21084 ft 404 kts 262°
2026-05-04 17:02 -22.74510 -43.80633 22121 ft 410 kts 250°
2026-05-04 17:03 -22.75487 -43.83558 22649 ft 415 kts 251°
2026-05-04 17:03 -22.76436 -43.86486 23168 ft 419 kts 250°
2026-05-04 17:03 -22.78431 -43.92484 24215 ft 426 kts 250°
2026-05-04 17:04 -22.80446 -43.98589 25267 ft 433 kts 250°
2026-05-04 17:04 -22.82497 -44.04794 26322 ft 441 kts 250°
2026-05-04 17:05 -22.84588 -44.11139 27370 ft 454 kts 250°
2026-05-04 17:05 -22.86724 -44.17623 28423 ft 457 kts 250°
2026-05-04 17:06 -22.88873 -44.24159 29474 ft 464 kts 250°
2026-05-04 17:06 -22.89955 -44.27458 30013 ft 463 kts 250°
2026-05-04 17:07 -22.92133 -44.34098 31059 ft 470 kts 250°
2026-05-04 17:07 -22.92859 -44.36314 31399 ft 472 kts 250°
2026-05-04 17:07 -22.94316 -44.40763 32093 ft 471 kts 250°
2026-05-04 17:07 -22.95411 -44.44115 32616 ft 471 kts 250°
2026-05-04 17:08 -22.96507 -44.47467 33136 ft 472 kts 250°
2026-05-04 17:08 -22.98702 -44.54190 34178 ft 469 kts 250°
2026-05-04 17:08 -22.99785 -44.57514 34696 ft 466 kts 250°
2026-05-04 17:09 -23.00866 -44.60836 35214 ft 467 kts 250°
2026-05-04 17:09 -23.01951 -44.64168 35734 ft 467 kts 250°
2026-05-04 17:09 -23.03020 -44.67495 36246 ft 466 kts 252°
2026-05-04 17:10 -23.04572 -44.74293 37275 ft 464 kts 256°
2026-05-04 17:10 -23.06885 -44.84513 38742 ft 469 kts 256°
2026-05-04 17:11 -23.07654 -44.87963 39110 ft 469 kts 256°
2026-05-04 17:11 -23.08423 -44.91399 39477 ft 467 kts 256°
2026-05-04 17:11 -23.09971 -44.98293 39995 ft 476 kts 256°
2026-05-04 17:12 -23.10756 -45.01812 39991 ft 482 kts 256°
2026-05-04 17:13 -23.14664 -45.19358 37961 ft 434 kts 256°
2026-05-04 17:14 -23.16749 -45.28757 34959 ft 447 kts 256°
2026-05-04 17:14 -23.17483 -45.32071 33896 ft 453 kts 256°
2026-05-04 17:14 -23.18953 -45.38715 31764 ft 456 kts 256°
2026-05-04 17:15 -23.19695 -45.42073 30686 ft 457 kts 256°
2026-05-04 17:15 -23.21192 -45.48808 28512 ft 457 kts 256°
2026-05-04 17:16 -23.22664 -45.55460 26391 ft 445 kts 256°
2026-05-04 17:16 -23.25255 -45.64828 23342 ft 422 kts 253°
2026-05-04 17:17 -23.26079 -45.67864 22358 ft 415 kts 253°
2026-05-04 17:17 -23.28516 -45.76687 19487 ft 397 kts 253°
2026-05-04 17:18 -23.29301 -45.79548 18555 ft 392 kts 253°
2026-05-04 17:18 -23.30839 -45.85144 16737 ft 381 kts 253°
2026-05-04 17:19 -23.32340 -45.90610 15065 ft 376 kts 253°
2026-05-04 17:19 -23.33914 -45.96167 15010 ft 394 kts 252°
2026-05-04 17:20 -23.35537 -46.01890 15011 ft 396 kts 253°
2026-05-04 17:20 -23.37100 -46.07431 14716 ft 374 kts 253°
2026-05-04 17:20 -23.37864 -46.10126 14482 ft 371 kts 253°
2026-05-04 17:21 -23.39371 -46.15479 14006 ft 368 kts 253°
2026-05-04 17:21 -23.40865 -46.20778 13521 ft 365 kts 253°
2026-05-04 17:22 -23.41598 -46.23380 13280 ft 364 kts 253°
2026-05-04 17:22 -23.42278 -46.26027 13031 ft 362 kts 259°
2026-05-04 17:23 -23.41347 -46.34041 12311 ft 359 kts 294°
2026-05-04 17:23 -23.40091 -46.36388 12075 ft 358 kts 303°
2026-05-04 17:23 -23.37358 -46.40900 11607 ft 356 kts 303°
2026-05-04 17:24 -23.35998 -46.43155 11371 ft 355 kts 303°
2026-05-04 17:24 -23.31856 -46.50002 10964 ft 361 kts 303°
2026-05-04 17:25 -23.30601 -46.52076 10691 ft 312 kts 303°
2026-05-04 17:25 -23.28323 -46.55841 10176 ft 287 kts 303°
2026-05-04 17:26 -23.26334 -46.59443 9698 ft 276 kts 286°
2026-05-04 17:26 -23.29177 -46.64069 8826 ft 275 kts 198°
2026-05-04 17:27 -23.32759 -46.65459 8369 ft 279 kts 205°
2026-05-04 17:27 -23.36315 -46.67330 7964 ft 281 kts 205°
2026-05-04 17:28 -23.39897 -46.69092 7396 ft 283 kts 205°
2026-05-04 17:29 -23.45425 -46.69662 6280 ft 277 kts 153°
2026-05-04 17:29 -23.48045 -46.64528 5810 ft 274 kts 85°
2026-05-04 17:30 -23.46592 -46.58586 4978 ft 251 kts 74°
2026-05-04 17:31 -23.45732 -46.55557 3770 ft 177 kts 73°
2026-05-04 17:31 -23.44705 -46.51737 3084 ft 171 kts 74°
2026-05-04 17:32 -23.44031 -46.49284 2637 ft 169 kts 74°
2026-05-04 17:33 -23.43466 -46.47168 2464 ft 43 kts 73°
2026-05-04 17:33 -23.43337 -46.46901 2460 ft 38 kts 46°
2026-05-04 17:34 -23.42872 -46.46788 2463 ft 19 kts 343°
2026-05-04 17:34 -23.42763 -46.46801 2462 ft 14 kts 33°
2026-05-04 17:35 -23.42522 -46.46893 2449 ft 7 kts 251°
2026-05-04 17:35 -23.42534 -46.46939 2451 ft 7 kts 254°
2026-05-04 17:35 -23.42539 -46.46955 2457 ft 0 kts 254°